DMSP 5D-2 F13 DEB, 40523

Orbit data source: Space-Track

DMSP 5D-2 F13 DEB, 40523 is space debris in SSO originally from a launch on Fri, 24 Mar 1995 UTC launched from the Air Force Western Test Range (AFWTR). Debris objects in space refer to the collection of defunct objects orbiting the Earth. Examples of debris include non-operational satellites, rocket bodies, and fragments generated from explosions, collisions, or faulty payload assembly.

Loading next visibility...
Identifier
40523, 1995-015DK
Orbit
SSO
Country
Flag of USUS
Related business
Manufacturer
Unknown
Mission
Spacecraft
Bus & Motor
Unknown
Mass
Unknown
Launch date (UTC)
1995-03-24 (31 years ago)
Launch vehicle
Unknown
Launch site
Air Force Western Test Range (AFWTR)
Object type
Payload
Rocket body
Debris
Shape & HBR
Unknown shape, 0.1 m
Radar Cross Section
Small (<0.1 m²)

Expand to show TLE details & history
Last TLE update: 2 days ago

TLE from 2 days ago
0 DMSP 5D-2 F13 DEB
1 40523U 95015DK  26061.10295358  .00008027  00000-0  20810-2 0  9992
2 40523  98.6104 117.2639 0014790 169.9453 190.2039 14.49973481570276
Epoch: 2026-03-02T02:28Z
TLE epoch observation values (Epoch: 2026-03-02T02:28:15.189Z)
Latitude
-0.00001°
Longitude
-79.70056°
Altitude
739.037 km
Speed
7.48 km/s
True Right ascension
07h 49m 03s
True Declination
0° 00' 00"
Sunlit
Object was in full shadow at epoch
Visualization orbit readout
Latitude
Unknown
Longitude
Unknown
Altitude
Unknown
Speed
Unknown
Apparent Right ascension
Unknown
Apparent Declination
Unknown
Sunlit
N/A
Visualization observer readout
Local Sidereal Time
19:54:45
Azimuth
Unknown
Elevation
Unknown
Doppler factor
Unknown
Orbital elements
Apogee altitude
733.351 km
Perigee altitude
712.347 km
Semi-major axis
7,100.986 km
Eccentricity
0.00148
Inclination
98.6104°
RAAN
117.2639°
Arg. of periapsis
169.9453°
True anomaly
190.17393°
Mean anomaly
190.2039°
Eccentric anomaly
190.18891°
Mean motion
3.62715 °/min
Orbital period
99.25 mins
BSTAR
0.002081
Loading maneuver chart data...
Computing Atmospheric mass density...

Documentation

Showing up to 5 results
|